When you browse on this site, cookies collect data to enhance your experience and personalize the content and advertising you see.
Visit our Privacy Policy to learn more. By continuing to use the site, you agree to this use of cookies and data.
  • In Hungary
  • List of Countries
  • For 7 days
  • Water Temperature
  • Weather Map
  • News
  • Weather Widgets
  • user-avatar
    Login

    Hourly Weather Bele-Kushalskoe

    Today, 25 January, Saturday

    Time Temperature Precipitation Wind Pressure Humidity
    00:00 -1°C° 0.3 mm 4 mps 733 mmHg 96%
    01:00 -1°C° 0.3 mm 4 mps 733 mmHg 96%
    02:00 -1°C° 0.3 mm 4 mps 734 mmHg 96%
    03:00 -1°C° 0 mm 4 mps 733 mmHg 92%
    04:00 -1°C° 0 mm 4 mps 733 mmHg 88%
    05:00 -2°C° 0 mm 4 mps 733 mmHg 84%
    06:00 -2°C° 0 mm 4 mps 733 mmHg 86%
    07:00 -2°C° 0 mm 4 mps 733 mmHg 87%
    08:00 -2°C° 0 mm 3 mps 733 mmHg 88%
    09:00 -2°C° 0 mm 4 mps 732 mmHg 87%
    10:00 -1°C° 0 mm 5 mps 732 mmHg 85%
    11:00 0°C° 0 mm 5 mps 732 mmHg 84%
    12:00 -2°C° 0.3 mm 6 mps 732 mmHg 79%
    13:00 -2°C° 0.3 mm 6 mps 731 mmHg 74%
    14:00 -2°C° 0.3 mm 6 mps 731 mmHg 70%
    15:00 -3°C° 0 mm 6 mps 732 mmHg 73%
    16:00 -4°C° 0 mm 6 mps 732 mmHg 76%
    17:00 -4°C° 0 mm 5 mps 733 mmHg 79%
    18:00 -5°C° 0 mm 6 mps 733 mmHg 81%
    19:00 -5°C° 0 mm 6 mps 734 mmHg 82%
    20:00 -5°C° 0 mm 6 mps 734 mmHg 84%
    21:00 -5°C° 0 mm 6 mps 735 mmHg 83%
    22:00 -5°C° 0 mm 6 mps 736 mmHg 83%
    23:00 -5°C° 0 mm 6 mps 737 mmHg 82%

    Tomorrow, 26 January, Sunday

    Time Temperature Precipitation Wind Pressure Humidity
    00:00 -6°C° 0 mm 5 mps 738 mmHg 82%
    01:00 -6°C° 0 mm 5 mps 738 mmHg 81%
    02:00 -6°C° 0 mm 5 mps 739 mmHg 81%
    03:00 -6°C° 0 mm 5 mps 740 mmHg 82%
    04:00 -5°C° 0 mm 4 mps 741 mmHg 82%
    05:00 -7°C° 0 mm 4 mps 741 mmHg 83%
    06:00 -7°C° 0 mm 4 mps 742 mmHg 84%
    07:00 -6°C° 0 mm 3 mps 742 mmHg 85%
    08:00 -6°C° 0 mm 3 mps 743 mmHg 86%
    09:00 -5°C° 0 mm 3 mps 743 mmHg 84%
    10:00 -5°C° 0 mm 3 mps 743 mmHg 83%
    11:00 -4°C° 0 mm 3 mps 744 mmHg 81%
    12:00 -4°C° 0 mm 4 mps 743 mmHg 80%
    13:00 -3°C° 0 mm 4 mps 743 mmHg 80%
    14:00 -3°C° 0 mm 4 mps 743 mmHg 80%
    15:00 -4°C° 0.3 mm 5 mps 742 mmHg 84%
    16:00 -4°C° 0.3 mm 6 mps 741 mmHg 88%
    17:00 -4°C° 0.3 mm 6 mps 740 mmHg 93%
    18:00 -3°C° 0.1 mm 6 mps 740 mmHg 94%
    19:00 -2°C° 0.1 mm 6 mps 739 mmHg 95%
    20:00 -1°C° 0.1 mm 6 mps 739 mmHg 95%
    21:00 -1°C° 0.1 mm 6 mps 739 mmHg 95%
    22:00 +1°C° 0.1 mm 6 mps 739 mmHg 94%
    23:00 +1°C° 0.1 mm 5 mps 739 mmHg 93%

    Day after tomorrow, 27 January, Monday

    Time Temperature Precipitation Wind Pressure Humidity
    00:00 +1°C° 0.2 mm 5 mps 739 mmHg 94%
    01:00 +1°C° 0.2 mm 5 mps 739 mmHg 94%
    02:00 +1°C° 0.2 mm 5 mps 740 mmHg 94%
    03:00 +1°C° 0.2 mm 5 mps 740 mmHg 95%
    04:00 +1°C° 0.2 mm 4 mps 741 mmHg 96%
    05:00 0°C° 0.2 mm 4 mps 741 mmHg 96%
    06:00 +1°C° 0.2 mm 3 mps 742 mmHg 97%
    07:00 0°C° 0.2 mm 3 mps 742 mmHg 97%
    08:00 +1°C° 0.2 mm 2 mps 743 mmHg 98%
    09:00 -1°C° 0.1 mm 2 mps 743 mmHg 97%
    10:00 -1°C° 0.1 mm 2 mps 744 mmHg 96%
    11:00 -2°C° 0.1 mm 2 mps 744 mmHg 95%
    12:00 -2°C° 0.2 mm 2 mps 744 mmHg 95%
    13:00 -2°C° 0.2 mm 2 mps 744 mmHg 96%
    14:00 -2°C° 0.2 mm 2 mps 744 mmHg 96%
    15:00 -2°C° 0.4 mm 2 mps 744 mmHg 96%
    16:00 -2°C° 0.4 mm 2 mps 744 mmHg 96%
    17:00 -2°C° 0.4 mm 2 mps 744 mmHg 97%
    18:00 -2°C° 0.5 mm 3 mps 744 mmHg 97%
    19:00 -2°C° 0.5 mm 3 mps 744 mmHg 97%
    20:00 -2°C° 0.5 mm 3 mps 744 mmHg 97%
    21:00 -2°C° 0.5 mm 2 mps 744 mmHg 97%
    22:00 -2°C° 0.5 mm 2 mps 744 mmHg 97%
    23:00 -2°C° 0.5 mm 2 mps 744 mmHg 97%

    28 January, Tuesday

    Time Temperature Precipitation Wind Pressure Humidity
    00:00 -2°C° 0.4 mm 2 mps 744 mmHg 97%
    01:00 -2°C° 0.4 mm 2 mps 743 mmHg 97%
    02:00 +1°C° 0.4 mm 1 mps 743 mmHg 98%
    03:00 +1°C° 0.2 mm 1 mps 743 mmHg 98%
    04:00 +1°C° 0.2 mm 1 mps 743 mmHg 98%
    05:00 +2°C° 0.2 mm 1 mps 742 mmHg 98%
    06:00 +2°C° 0.2 mm 1 mps 742 mmHg 98%
    07:00 +2°C° 0.2 mm 1 mps 742 mmHg 98%
    08:00 +2°C° 0.2 mm 1 mps 742 mmHg 98%
    09:00 +2°C° 0.1 mm 1 mps 742 mmHg 98%
    10:00 +1°C° 0.1 mm 2 mps 742 mmHg 99%
    11:00 +1°C° 0.1 mm 2 mps 742 mmHg 99%
    12:00 +1°C° 0 mm 2 mps 742 mmHg 99%
    13:00 +1°C° 0 mm 2 mps 742 mmHg 98%
    14:00 +1°C° 0 mm 2 mps 742 mmHg 98%
    15:00 +1°C° 0.1 mm 2 mps 742 mmHg 98%
    16:00 +1°C° 0.1 mm 2 mps 742 mmHg 98%
    17:00 +1°C° 0.1 mm 2 mps 742 mmHg 98%
    18:00 +1°C° 0.1 mm 2 mps 742 mmHg 98%
    19:00 -1°C° 0.1 mm 2 mps 742 mmHg 98%
    20:00 -1°C° 0.1 mm 2 mps 742 mmHg 97%
    21:00 -1°C° 0 mm 2 mps 742 mmHg 97%
    22:00 -1°C° 0 mm 2 mps 742 mmHg 96%
    23:00 -2°C° 0 mm 2 mps 742 mmHg 96%

    29 January, Wednesday

    Time Temperature Precipitation Wind Pressure Humidity
    00:00 -2°C° 0 mm 2 mps 742 mmHg 96%
    01:00 -2°C° 0 mm 2 mps 742 mmHg 96%
    02:00 -2°C° 0 mm 2 mps 742 mmHg 96%
    03:00 -2°C° 0.1 mm 2 mps 741 mmHg 96%
    04:00 -1°C° 0.1 mm 2 mps 741 mmHg 96%
    05:00 -1°C° 0.1 mm 3 mps 741 mmHg 97%
    06:00 -1°C° 0 mm 3 mps 741 mmHg 97%
    07:00 -1°C° 0 mm 3 mps 741 mmHg 96%
    08:00 -1°C° 0 mm 3 mps 741 mmHg 96%
    09:00 -2°C° 0 mm 4 mps 741 mmHg 95%
    10:00 -1°C° 0 mm 4 mps 741 mmHg 93%
    11:00 -1°C° 0 mm 4 mps 741 mmHg 92%
    12:00 -1°C° 0 mm 4 mps 740 mmHg 92%
    13:00 -1°C° 0 mm 4 mps 740 mmHg 92%
    14:00 -1°C° 0 mm 4 mps 740 mmHg 92%
    15:00 -1°C° 0 mm 4 mps 740 mmHg 94%
    16:00 -1°C° 0 mm 4 mps 739 mmHg 95%
    17:00 -1°C° 0 mm 4 mps 739 mmHg 97%
    18:00 -1°C° 0 mm 4 mps 739 mmHg 97%
    19:00 -1°C° 0 mm 4 mps 739 mmHg 96%
    20:00 -1°C° 0 mm 4 mps 739 mmHg 96%
    21:00 -1°C° 0 mm 4 mps 738 mmHg 96%
    22:00 -1°C° 0 mm 4 mps 738 mmHg 96%
    23:00 0°C° 0 mm 4 mps 738 mmHg 96%

    30 January, Thursday

    Time Temperature Precipitation Wind Pressure Humidity
    00:00 -1°C° 0 mm 4 mps 737 mmHg 96%
    01:00 -1°C° 0 mm 5 mps 736 mmHg 96%
    02:00 -1°C° 0 mm 5 mps 736 mmHg 96%
    03:00 -1°C° 0.2 mm 5 mps 735 mmHg 97%
    04:00 -1°C° 0.2 mm 5 mps 735 mmHg 97%
    05:00 -1°C° 0.2 mm 5 mps 734 mmHg 97%
    06:00 -1°C° 0.7 mm 5 mps 734 mmHg 97%
    07:00 -1°C° 0.7 mm 5 mps 734 mmHg 97%
    08:00 -1°C° 0.7 mm 4 mps 734 mmHg 97%
    09:00 -1°C° 0.2 mm 4 mps 734 mmHg 93%
    10:00 -1°C° 0.2 mm 4 mps 734 mmHg 89%
    11:00 -1°C° 0.2 mm 4 mps 734 mmHg 85%
    12:00 -1°C° 0 mm 4 mps 734 mmHg 84%
    13:00 -1°C° 0 mm 4 mps 734 mmHg 83%
    14:00 -1°C° 0 mm 4 mps 735 mmHg 82%
    15:00 -2°C° 0 mm 4 mps 735 mmHg 84%
    16:00 -2°C° 0 mm 4 mps 735 mmHg 86%
    17:00 -2°C° 0 mm 5 mps 735 mmHg 88%
    18:00 -2°C° 0.1 mm 5 mps 735 mmHg 89%
    19:00 -2°C° 0.1 mm 5 mps 735 mmHg 90%
    20:00 -2°C° 0.1 mm 5 mps 735 mmHg 90%
    21:00 -2°C° 0.1 mm 5 mps 735 mmHg 91%
    22:00 -2°C° 0.1 mm 5 mps 735 mmHg 92%
    23:00 -2°C° 0.1 mm 5 mps 735 mmHg 92%
    Show more